Starlink 11077

operational
NORAD ID: 58707 Int'l Des: 2024-002 Owner: SPXS Country: US Constellation: starlink
LEOCIRCULAR

About Starlink 11077

Description loading...

Live Position

Loading 3D Globe...

Upcoming Passes

Altitude History

Altitude vs Time

uPlot chart will show altitude changes over time

Two-Line Element Set

1 58707U 24002C 25303.91749532 .00000140 00000-0 60173-5 0 9995
2 58707 53.1579 193.8431 0001549 129.5080 230.6075 15.69714026106058
Epoch: Oct 30, 2025 • Age: 10 hours

Current Status

Altitude 360.1 km
Velocity 7.69 km/s
Sub-Earth Point -1.25°S, 146.51°W
Launch Date Jan 3, 2024
Age 1.8 years
Type internet

Technical Details

Classification Payload
Mass 960.00 kg
Dry Mass 910.00 kg
Total Mass 960.00 kg
Length 0.30 m
Diameter 4.10 m
Span 29.00 m
Shape Box + pan
Manufacturer SPXS
Bus Type Starlink V2MD
Phase Status In Orbit
Owner/State SPXS/US

Large Constellations

Loading constellations...